Home   Weather   Grand Prairie   Past weeks

Flag for USA Past Weather in Grand Prairie, Texas, USA — Yesterday and Last 2 Weeks

74 °F


Feels Like: 77 °F
Forecast: 65 / 84 °F
Wind: 5 mph from South

Location: Grand Prairie Municipal Airport

Current Time: Oct 27, 2016 at 12:05:29 AM

Latest Report: Oct 26, 2016 at 11:35 PM

Visibility: 10 mi

Pressure: 30.16 "Hg

Humidity: 57%

Dew Point: 57 °F

Location of Grand PrairieLocation

Past Weather in Grand Prairie — Graph


Grand Prairie Temperature Yesterday

Maximum temperature yesterday: 84 °F (at 3:50 PM)
Minimum temperature yesterday: 64 °F (at 6:50 AM)
Average temperature yesterday: 72 °F

High & Low Weather Summary for the Past Weeks

High90 °F (Oct 12, 2:50 PM)100% (Oct 12, 1:55 AM)30.32 "Hg (Oct 12, 1:55 AM)
Low50 °F (Oct 22, 7:50 AM)24% (Oct 22, 3:50 PM)29.72 "Hg (Oct 17, 5:50 PM)
Average71 °F68%30.07 "Hg
* Reported Oct 11 10:15 PM — Oct 26 10:55 PM, Grand Prairie, Weather by CustomWeather, © 2016

Note: Actual official high and low records may vary slightly from our data, if they occured in-between our weather recording intervals... More about our weather records


Grand Prairie Weather History for the Previous 24 Hours

Scroll right to see more
Time TempWeatherWind HumidityBarometerVisibility
10:55 PM
Wed, Oct 26
74 °FClear.7 mph57%30.16 "Hg10 mi
10:35 PM75 °FClear.5 mph55%30.17 "Hg10 mi
10:15 PM76 °FClear.7 mph54%30.16 "Hg10 mi
9:55 PM77 °FPassing clouds.8 mph53%30.15 "Hg10 mi
9:35 PM77 °FPassing clouds.9 mph51%30.15 "Hg10 mi
8:55 PM77 °FPassing clouds.7 mph54%30.12 "Hg10 mi
8:35 PM77 °FPassing clouds.5 mph54%30.12 "Hg10 mi
8:15 PM77 °FPartly cloudy.5 mph54%30.13 "Hg10 mi
7:50 PM77 °FPassing clouds.3 mph57%30.12 "Hg10 mi
6:50 PM79 °FPassing clouds.3 mph51%30.08 "Hg10 mi
5:50 PM82 °FScattered clouds.8 mph42%30.05 "Hg10 mi
4:50 PM82 °FScattered clouds.8 mph45%30.06 "Hg10 mi
3:50 PM84 °FScattered clouds.12 mph45%30.06 "Hg10 mi
2:50 PM82 °FSunny.10 mph45%30.09 "Hg10 mi
1:50 PM82 °FSunny.14 mph48%30.12 "Hg10 mi
12:50 PM81 °FSunny.12 mph54%30.15 "Hg10 mi
11:50 AM79 °FScattered clouds.9 mph58%30.16 "Hg10 mi
10:50 AM73 °FSunny.9 mph69%30.16 "Hg10 mi
9:50 AM70 °FSunny.7 mph78%30.16 "Hg10 mi
8:50 AM66 °FSunny.9 mph83%30.15 "Hg10 mi
7:50 AM64 °FSunny.7 mph88%30.12 "Hg10 mi
6:50 AM64 °FClear.7 mph88%30.13 "Hg10 mi
6:35 AM65 °FClear.7 mph83%30.11 "Hg10 mi
6:15 AM65 °FClear.6 mph83%30.11 "Hg10 mi
5:55 AM65 °FClear.5 mph83%30.11 "Hg10 mi
5:35 AM65 °FClear.6 mph82%30.11 "Hg10 mi
5:15 AM65 °FClear.5 mph81%30.11 "Hg10 mi
4:55 AM65 °FClear.5 mph80%30.11 "Hg10 mi
4:35 AM65 °FClear.3 mph79%30.11 "Hg10 mi
4:15 AM65 °FClear.3 mph76%30.12 "Hg10 mi
3:55 AM66 °FClear.6 mph74%30.13 "Hg10 mi
3:35 AM66 °FClear.5 mph72%30.13 "Hg10 mi
3:15 AM66 °FClear.3 mph71%30.13 "Hg10 mi
2:55 AM67 °FClear.3 mph69%30.13 "Hg10 mi
2:35 AM67 °FClear.6 mph68%30.13 "Hg10 mi
2:15 AM68 °FClear.7 mph67%30.13 "Hg10 mi
1:55 AM68 °FClear.6 mph67%30.13 "Hg10 mi
1:35 AM68 °FClear.8 mph68%30.13 "Hg10 mi
1:15 AM68 °FClear.8 mph69%30.14 "Hg10 mi
12:55 AM69 °FClear.8 mph69%30.13 "Hg10 mi
12:35 AM69 °FClear.6 mph68%30.14 "Hg10 mi
12:15 AM69 °FClear.7 mph68%30.14 "Hg10 mi
Weather by CustomWeather, © 2016

See weather overviewHow to use our weather pages